[[{"header":{"parameterUnit":"m.s-1","parameterCategory":1,"la1":30.2991,"la2":30.254,"lo1":-89.0895,"lo2":-89.0444,"dy":0.0017,"dx":0.0017,"nx":28,"ny":28,"refTime":"2024-06-10T09:00:00:Z","depth":0,"parameterNumber":2,"parameterNumberName":"U-component_of_WINDS"},"data":[0,0,0,0,0,0,0,0,0,0,0,0,0,0,0,0,0,0,0,0,0,0,0,0,0,0,0,0,0,0,0,0,0,0,0,0,0,0,0,0,0,0,0,0,0,0,0,0,0,0,0,0,0,0,0,0,0,0,5.0778,5.078,0,5.097,5.0972,5.0974,5.0904,5.09,5.0895,5.0891,5.1093,5.1102,5.1111,0,0,0,0,0,0,0,0,0,0,0,0,0,5.0352,5.036,5.0778,5.078,5.0783,5.097,5.0972,5.0975,5.0905,5.09,5.0894,5.0889,5.1089,5.1101,5.1112,0,0,0,0,0,0,0,0,0,0,0,0,0,5.054,5.0363,5.0777,5.077,5.0771,5.0969,5.0972,5.0976,5.0906,5.0899,5.0893,5.0887,5.1086,5.1099,5.1113,5.1331,0,0,5.1157,5.1163,0,0,0,0,0,0,0,0,5.053,5.0556,5.0769,5.0771,5.0773,5.0906,5.0896,5.1095,5.0908,5.0855,5.0891,5.0884,5.1036,5.1054,5.1104,5.1341,5.1349,5.1158,5.1166,5.1172,5.1176,0,0,0,0,0,0,0,5.0517,5.0547,5.0854,5.0772,5.0774,5.0758,5.0777,5.0933,5.098,5.0859,5.0854,5.0878,5.1036,5.1091,5.1109,5.1352,5.1157,5.117,5.1179,5.1184,5.1774,5.1781,0,0,0,0,0,0,5.0502,5.0537,5.0848,5.086,5.0632,5.0771,5.0793,5.087,5.0978,5.0988,5.0883,5.0874,5.107,5.1092,5.1115,5.1375,5.1172,5.1186,5.1194,5.1767,5.1775,5.1783,0,0,0,0,0,0,5.0493,5.0531,5.084,5.0697,5.0735,5.0785,5.0873,5.0877,5.0932,5.0996,5.1005,5.0931,5.1066,5.1096,5.1277,5.1381,5.1192,5.1205,5.1758,5.1769,5.1779,5.1898,0,0,0,0,0,0,5.0482,5.0528,5.0611,5.0699,5.0743,5.0998,5.0879,5.0886,5.0956,5.0946,5.1043,5.1053,5.1063,5.1256,5.1291,5.1397,5.1216,5.1749,5.1763,5.1776,5.1885,5.1912,5.1935,0,0,0,0,0,5.0467,5.0638,5.0615,5.0653,5.0848,5.1004,5.1029,5.1036,5.0965,5.1049,5.1089,5.105,5.1365,5.1276,5.1314,5.1426,5.1743,5.1759,5.1775,5.1874,5.1907,5.1934,0,0,0,0,0,0,5.0563,5.065,5.0625,5.0831,5.091,5.0992,5.1098,5.1071,5.1174,5.116,5.1165,5.1188,5.1374,5.1419,5.1318,5.1641,5.1543,5.1568,5.1605,5.1637,5.1661,5.1646,5.1228,0,0,0,0,0,5.0608,5.0727,5.0797,5.0971,5.1012,5.1049,5.1117,5.1115,5.1199,5.1232,5.1287,5.137,5.1487,5.1565,5.1676,5.1891,5.1911,5.1988,5.2012,5.2032,5.2053,5.2168,5.2202,5.1836,5.1836,5.1836,0,0,5.0702,5.0764,5.084,5.0992,5.1054,5.1177,5.1078,5.1213,5.1305,5.1254,5.1427,5.147,5.1563,5.1762,5.1852,5.1804,5.2158,5.2053,5.2068,5.2078,5.2188,5.2222,5.2253,5.1847,5.1845,5.1844,0,0,5.0937,5.0997,5.1147,5.121,5.1303,5.1326,5.1362,5.1448,5.1473,5.1647,5.1611,5.172,5.1923,5.199,5.2051,5.2308,5.2275,5.2345,5.2473,5.2585,5.2614,5.2639,5.2729,5.2762,5.2366,5.2366,5.2366,0,5.1043,5.1226,5.1228,5.1366,5.1433,5.1391,5.1543,5.1604,5.1731,5.1778,5.1723,5.1974,5.2034,5.2247,5.2309,5.2361,5.2401,5.2333,5.2609,5.2635,5.2659,5.2745,5.2779,5.2374,5.2373,5.2372,5.2371,0,5.1351,5.1479,5.1589,5.1709,5.1789,5.1934,5.1958,5.2039,5.203,5.2058,5.2235,5.2305,5.2429,5.2479,5.2473,5.2691,5.2658,5.2607,5.2507,5.2701,5.2782,5.2815,5.2385,5.2382,5.238,5.2378,0,0,5.1653,5.177,5.181,5.1863,5.1962,5.2061,5.2203,5.2322,5.2391,5.2479,5.2598,5.2769,5.2721,5.279,5.279,5.2889,5.3085,5.2824,5.2827,5.2869,5.3327,5.3364,5.3402,5.3064,5.307,5.3075,5.3318,0,5.1894,5.2141,5.2146,5.2374,5.2491,5.2451,5.2574,5.2648,5.2679,5.2783,5.2816,5.2936,5.2865,5.2906,5.3001,5.3041,5.3177,5.3024,5.3174,5.3179,5.315,5.3444,5.3485,5.3711,5.335,5.3355,5.3359,0,5.2208,5.2303,5.2542,5.2621,5.267,5.2781,5.2889,5.299,5.3073,5.3087,5.3163,5.3148,5.3293,5.319,5.3388,5.3284,5.3346,5.3374,5.3383,5.3397,5.328,5.3464,5.3783,5.3817,5.3409,5.3405,5.3402,0,5.2402,5.259,5.2756,5.2803,5.29,5.2979,5.3023,5.3099,5.317,5.3265,5.3311,5.3422,5.3483,5.357,5.3585,5.3509,5.3784,5.3683,5.38,5.38,5.3859,5.3855,5.4191,5.3902,5.3901,5.3901,5.39,0,5.2669,5.2816,5.2844,5.2946,5.3109,5.3113,5.3275,5.3313,5.3381,5.349,5.3463,5.3566,5.3581,5.3687,5.3701,5.3862,5.3891,5.3906,5.3908,5.3908,5.3905,5.3947,5.3931,5.391,5.3908,5.3906,5.3904,0,5.2913,5.2937,5.3115,5.3192,5.3215,5.3331,5.3397,5.3495,5.3521,5.3659,5.3692,5.3734,5.3857,5.3881,5.4028,5.4037,5.4228,5.4215,5.42,5.4198,5.4313,5.4301,5.4686,5.4736,5.4416,5.4419,5.4422,0,5.3082,5.3193,5.3281,5.3351,5.3398,5.3512,5.3583,5.3592,5.3667,5.3768,5.3853,5.3974,5.407,5.427,5.4314,5.4425,5.4413,5.4541,5.443,5.4426,5.4413,5.4405,5.4415,5.4562,5.4565,5.4568,5.457,0,5.3378,5.3383,5.3486,5.3593,5.3677,5.3762,5.3843,5.3902,5.3921,5.4006,5.4131,5.4206,5.4354,5.4474,5.4585,5.4631,5.4604,5.4605,5.4637,5.4638,5.4623,5.463,5.4256,5.4596,5.4593,5.4591,5.459,5.4589,5.3588,5.3684,5.376,5.3874,5.3935,5.401,5.4104,5.4141,5.4245,5.4365,5.4364,5.4501,5.4579,5.4725,5.4778,5.4884,5.4844,5.4892,5.4904,5.4915,5.4925,5.4607,5.4905,5.4904,5.4904,5.4903,5.4903,0,5.388,5.3926,5.4032,5.4143,5.4233,5.4198,5.4285,5.4363,5.4482,5.4557,5.4651,5.4794,5.4909,5.4961,5.5074,5.515,5.514,5.5179,5.5173,5.5183,5.4956,5.4915,5.5185,5.5185,5.5184,5.5184,5.5184,5.5184,5.4043,5.4203,5.4217,5.4407,5.4452,5.4584,5.4636,5.4705,5.4764,5.4924,5.5018,5.5051,5.5116,5.5233,5.5337,5.5349,5.5391,5.5436,5.5442,5.5228,5.52,5.5172,5.5134,5.5445,5.5446,5.5661,5.5663,5.5664]},{"header":{"parameterUnit":"m.s-1","parameterCategory":1,"la1":30.2991,"la2":30.254,"lo1":-89.0895,"lo2":-89.0444,"dy":0.0017,"dx":0.0017,"nx":28,"ny":28,"refTime":"2024-06-10T09:00:00:Z","depth":0,"parameterNumber":3,"parameterNumberName":"V-component_of_WINDS"},"data":[0,0,0,0,0,0,0,0,0,0,0,0,0,0,0,0,0,0,0,0,0,0,0,0,0,0,0,0,0,0,0,0,0,0,0,0,0,0,0,0,0,0,0,0,0,0,0,0,0,0,0,0,0,0,0,0,0,0,1.0801,1.0802,0,1.0875,1.0876,1.0877,1.0885,1.0885,1.0884,1.0883,1.096,1.0963,1.0966,0,0,0,0,0,0,0,0,0,0,0,0,0,1.0667,1.0669,1.0801,1.0802,1.0803,1.0875,1.0876,1.0877,1.0885,1.0885,1.0884,1.0883,1.0959,1.0963,1.0966,0,0,0,0,0,0,0,0,0,0,0,0,0,1.0731,1.067,1.0801,1.0816,1.0818,1.0875,1.0876,1.0877,1.0886,1.0885,1.0883,1.0882,1.0958,1.0962,1.0966,1.1014,0,0,1.0979,1.0981,0,0,0,0,0,0,0,0,1.0728,1.0736,1.0813,1.0815,1.0817,1.087,1.0857,1.0923,1.0886,1.086,1.0883,1.0882,1.0931,1.0937,1.0954,1.1018,1.1021,1.0979,1.0982,1.0984,1.0985,0,0,0,0,0,0,0,1.0723,1.0733,1.083,1.0814,1.0817,1.0819,1.0827,1.087,1.0901,1.0862,1.0863,1.0872,1.0932,1.095,1.0956,1.1022,1.0979,1.0983,1.0985,1.0987,1.1128,1.1129,0,0,0,0,0,0,1.0716,1.0729,1.0828,1.0833,1.0769,1.0822,1.0831,1.0854,1.0901,1.0906,1.0872,1.0872,1.0943,1.0951,1.0958,1.1017,1.0984,1.0987,1.099,1.1127,1.1128,1.113,0,0,0,0,0,0,1.0713,1.0725,1.0825,1.0781,1.0794,1.0826,1.0852,1.0856,1.0874,1.0908,1.0914,1.0885,1.0943,1.0953,1.1,1.102,1.0989,1.0993,1.1125,1.1127,1.1129,1.1135,0,0,0,0,0,0,1.0709,1.0724,1.0742,1.0782,1.0797,1.0865,1.0853,1.0858,1.0881,1.0881,1.0921,1.0927,1.0943,1.0994,1.1004,1.1025,1.0996,1.1124,1.1126,1.1128,1.1133,1.1137,1.114,0,0,0,0,0,1.0704,1.0741,1.0743,1.0755,1.082,1.0867,1.0875,1.0892,1.0882,1.0901,1.0923,1.0926,1.1016,1.0999,1.101,1.1033,1.1123,1.1125,1.1128,1.1131,1.1136,1.114,0,0,0,0,0,0,1.0704,1.0747,1.0749,1.08,1.0829,1.0868,1.0892,1.0896,1.093,1.0928,1.0948,1.0957,1.1003,1.1023,1.1003,1.1081,1.1068,1.1074,1.1067,1.1071,1.1075,1.1069,1.1,0,0,0,0,0,1.071,1.0743,1.0779,1.082,1.0835,1.0861,1.0882,1.0892,1.0924,1.0936,1.0962,1.0992,1.1027,1.105,1.1085,1.1135,1.1144,1.1157,1.116,1.1163,1.1167,1.1195,1.12,1.1139,1.1139,1.1139,0,0,1.0722,1.075,1.077,1.0821,1.0845,1.0879,1.0872,1.0909,1.0934,1.0942,1.0988,1.1008,1.1043,1.1092,1.1115,1.111,1.1186,1.1166,1.1168,1.1171,1.1198,1.1204,1.1209,1.1141,1.1141,1.114,0,0,1.0762,1.0786,1.0823,1.0847,1.0884,1.09,1.0909,1.0947,1.096,1.1006,1.1012,1.1043,1.1104,1.1128,1.1149,1.1197,1.12,1.1207,1.1226,1.1252,1.1257,1.1261,1.1278,1.1284,1.1212,1.1212,1.1212,0,1.0773,1.0825,1.0842,1.0878,1.09,1.0908,1.0945,1.0968,1.1014,1.1029,1.1022,1.1097,1.1122,1.1176,1.1188,1.1204,1.1215,1.1203,1.1255,1.1259,1.1264,1.128,1.1286,1.1212,1.1212,1.1212,1.1212,0,1.0837,1.0873,1.0898,1.0941,1.0966,1.1003,1.1025,1.1048,1.1056,1.1073,1.112,1.1149,1.1189,1.1203,1.1211,1.1259,1.1254,1.1251,1.1239,1.127,1.1285,1.1292,1.1213,1.1213,1.1213,1.1213,0,0,1.088,1.0931,1.094,1.0959,1.0999,1.1027,1.1064,1.1102,1.1122,1.1153,1.1184,1.1234,1.1231,1.1254,1.1265,1.1288,1.1324,1.1282,1.1284,1.1289,1.1377,1.1379,1.1386,1.1326,1.1327,1.1328,1.1374,0,1.0924,1.099,1.1005,1.1062,1.1095,1.1102,1.1134,1.1162,1.1179,1.1209,1.1228,1.1263,1.1256,1.127,1.1294,1.1315,1.1342,1.1312,1.1355,1.1357,1.1346,1.1394,1.1397,1.1439,1.138,1.1381,1.1382,0,1.0986,1.1017,1.1076,1.1111,1.1126,1.1154,1.119,1.1219,1.1251,1.1261,1.1286,1.1295,1.1333,1.1318,1.1371,1.135,1.1368,1.1381,1.1383,1.1388,1.1371,1.1401,1.1453,1.1459,1.1392,1.1391,1.139,0,1.1011,1.1068,1.1111,1.1127,1.1169,1.1188,1.1207,1.1237,1.1259,1.129,1.1304,1.134,1.136,1.1387,1.1404,1.1392,1.1455,1.1442,1.1465,1.1465,1.1479,1.1478,1.1534,1.1491,1.149,1.149,1.149,0,1.1059,1.1095,1.1122,1.1149,1.1189,1.1206,1.1245,1.1264,1.129,1.132,1.1328,1.1356,1.1378,1.1408,1.1422,1.1463,1.1472,1.1482,1.1485,1.1481,1.148,1.1494,1.1491,1.1492,1.1492,1.1491,1.1491,0,1.1094,1.1114,1.1161,1.1196,1.1206,1.1234,1.1264,1.1289,1.1306,1.1343,1.1353,1.138,1.1416,1.1436,1.1482,1.1491,1.1537,1.1539,1.1526,1.1528,1.1549,1.1547,1.1617,1.1627,1.1576,1.1577,1.1577,0,1.1124,1.1151,1.1189,1.1209,1.1228,1.1261,1.1283,1.13,1.1323,1.136,1.1381,1.1418,1.1448,1.1506,1.1529,1.1564,1.1566,1.1588,1.1572,1.1566,1.1566,1.1564,1.1567,1.1591,1.1592,1.1592,1.1593,0,1.1174,1.1182,1.1213,1.1248,1.1274,1.1302,1.133,1.1346,1.1368,1.1393,1.143,1.1453,1.15,1.1536,1.1572,1.1591,1.1595,1.1598,1.1605,1.1601,1.1592,1.1597,1.1534,1.1596,1.1596,1.1595,1.1595,1.1595,1.1207,1.1232,1.1262,1.1296,1.1319,1.1344,1.137,1.1389,1.142,1.1459,1.1468,1.1506,1.1536,1.1585,1.1605,1.1635,1.1631,1.1642,1.1644,1.1646,1.1647,1.1587,1.1642,1.1642,1.1642,1.1642,1.1642,0,1.1258,1.1277,1.1308,1.1347,1.1374,1.1375,1.1406,1.1428,1.1462,1.1489,1.1518,1.156,1.1595,1.1621,1.1656,1.1675,1.1678,1.1684,1.1683,1.1687,1.1649,1.1639,1.1681,1.1681,1.1681,1.1681,1.1681,1.1681,1.1287,1.1328,1.134,1.1392,1.1412,1.1449,1.1467,1.149,1.1512,1.1558,1.1587,1.1603,1.163,1.1667,1.1698,1.1705,1.1717,1.1723,1.173,1.1694,1.169,1.1686,1.1677,1.1726,1.1726,1.1765,1.1765,1.1766]}]]